Location: ActonStarParty
(42.4766°N, 71.4538°W)
Time: 16:33:55
(UTC-04:00)

Cosmos 2056 Rocket - Pass Details

Date: 19 April 2018
Orbit: 741 x 802 km, 74.0° (Epoch: 19 September)

Event Time Altitude Azimuth Distance (km) Brightness Sun altitude
Exits shadow 21:33:02 41° 144° (SE) 1,149 3.9 -20.5°
Maximum altitude 21:34:19 50° 104° (ESE) 1,019 3.7 -20.7°
Drops below altitude 10° 21:39:31 10° 30° (NNE) 2,375 6.1 -21.4°
Sets 21:41:59 0° 26° (NNE) 3,303 7.0 -21.8°
